CDT,Max TemperatureF,Mean TemperatureF,Min TemperatureF,Max Dew PointF,MeanDew PointF,Min DewpointF,Max Humidity, Mean Humidity, Min Humidity, Max Sea Level PressureIn, Mean Sea Level PressureIn, Min Sea Level PressureIn, Max VisibilityMiles, Mean VisibilityMiles, Min VisibilityMiles, Max Wind SpeedMPH, Mean Wind SpeedMPH, Max Gust SpeedMPH,PrecipitationIn, CloudCover, Events, WindDirDegrees
2013-10-1,87,78,68,70,67,63,97,73,48,30.07,30.02,29.99,10,9,3,12,4,20,0.00,3,,95
2013-10-2,82,77,71,72,70,68,93,84,74,30.09,30.05,30.00,10,7,3,15,5,18,0.17,6,Rain,69
2013-10-3,88,80,71,74,71,69,93,76,59,30.08,30.03,29.99,10,9,3,18,8,22,0.14,6,Rain,119
2013-10-4,88,80,72,74,72,70,93,76,59,30.08,30.04,30.00,10,9,5,17,7,21,T,3,,113
2013-10-5,87,81,74,75,73,70,100,79,57,30.06,30.01,29.95,10,6,0,20,8,23,T,5,Fog-Rain,105
2013-10-6,78,72,66,72,70,62,93,86,79,29.94,29.87,29.81,10,8,1,20,6,25,1.29,6,Rain-Thunderstorm,118
2013-10-7,77,68,59,63,52,48,78,57,36,30.02,29.94,29.89,10,10,10,21,12,24,0.00,3,,347
2013-10-8,79,65,51,58,53,49,89,66,42,30.03,30.00,29.98,10,10,10,10,5,14,0.00,1,,352
2013-10-9,81,72,63,67,63,56,93,80,67,30.11,30.06,30.01,10,9,6,12,7,16,0.00,4,,58
2013-10-10,84,74,64,67,64,62,93,74,54,30.13,30.08,30.02,10,7,1,9,3,12,0.00,6,,68
2013-10-11,85,74,62,68,64,61,93,70,47,30.08,30.03,29.99,10,7,0,13,3,15,0.00,3,Fog,100
2013-10-12,86,75,64,70,65,62,93,71,48,30.10,30.06,30.01,10,10,6,12,2,15,0.00,3,Fog,235
2013-10-13,87,77,66,69,65,61,93,69,44,30.17,30.12,30.08,10,10,9,13,5,17,0.00,2,,29
2013-10-14,86,76,65,66,62,58,90,65,40,30.13,30.08,30.03,10,10,7,10,4,17,0.00,3,,43
2013-10-15,84,74,64,65,63,60,93,70,47,30.08,30.03,29.97,10,10,7,8,4,10,0.00,3,,102
2013-10-16,85,75,64,67,65,61,93,74,54,30.04,29.98,29.93,10,10,7,13,4,15,0.00,4,,149
2013-10-17,83,74,64,73,67,61,87,77,67,29.98,29.95,29.91,10,8,4,15,7,18,0.12,7,Rain,304
2013-10-18,78,70,62,61,58,55,90,69,47,30.05,29.99,29.94,10,10,7,13,6,15,0.00,5,,2
2013-10-19,68,62,56,61,58,55,93,83,73,30.04,29.98,29.93,10,9,2,13,4,17,0.36,6,Rain,4
2013-10-20,75,64,53,56,54,51,93,70,46,30.08,30.03,29.99,10,10,7,12,5,16,0.00,3,,3
2013-10-21,74,66,58,59,56,52,86,70,53,30.08,30.03,29.98,10,10,7,14,4,16,T,5,,42
2013-10-22,80,69,57,59,56,47,90,61,32,29.99,29.95,29.89,10,10,7,10,4,15,0.00,5,,343
2013-10-23,74,62,50,53,45,36,86,56,25,30.14,30.06,29.98,10,10,7,22,8,26,0.00,0,,335
2013-10-24,77,63,48,51,45,41,86,61,35,30.24,30.18,30.12,10,10,10,10,3,14,0.00,0,,197
2013-10-25,67,57,47,51,41,34,86,58,29,30.40,30.32,30.22,10,10,10,18,10,23,0.00,0,,10
2013-10-26,72,57,42,46,38,31,83,55,26,30.31,30.25,30.17,10,10,10,8,2,12,0.00,0,,64
2013-10-27,75,60,45,57,49,42,86,62,38,30.18,30.14,30.10,10,10,10,10,3,14,0.00,2,,132
2013-10-28,80,69,57,60,58,54,90,71,52,30.22,30.17,30.11,10,10,7,13,4,16,0.00,3,,134
2013-10-29,80,69,57,61,59,55,93,71,48,30.27,30.23,30.19,10,10,7,13,4,16,0.00,5,,125
2013-10-30,80,70,60,66,62,58,93,74,54,30.22,30.17,30.09,10,9,6,18,7,23,0.00,5,,123
2013-10-31,81,75,69,72,67,66,90,76,62,30.08,29.96,29.85,10,9,5,23,12,30,0.11,6,Rain,168